Preview of NWS' New Version of Forecast
This preview is not operational and should not be used for support decisions.

Regional Weather Roundup (RWR)

Issued by National Weather Service (NWS)

                            
000
ASUS43 KTOP 250308
RWRKS 

WEATHER ROUNDUP FOR KANSAS
NATIONAL WEATHER SERVICE GOODLAND KS
1000 PM CDT SAT AUG 24 2019

NOTE:  "FAIR" INDICATES FEW OR NO CLOUDS BELOW 12,000 FEET WITH NO
SIGNIFICANT WEATHER AND/OR OBSTRUCTIONS TO VISIBILITY.

KSZ001>006-013>018-027>032-041>047-250400-
NORTHWEST KANSAS
  
CITY           SKY/WX    TMP DP  RH WIND       PRES   REMARKS
GOODLAND       MOCLDY    67  65  93 S7        29.96F                  
HAYS           CLOUDY    72  69  90 E15       29.75R                  
HILL CITY      TSTM      71  70  96 NE7       29.95R FOG              
RUSSELL        MOCLDY    69  65  86 E17       29.93R                  
$$

KSZ061>065-074>080-084>089-250400-
SOUTHWEST KANSAS
  
CITY           SKY/WX    TMP DP  RH WIND       PRES   REMARKS
DODGE CITY     CLEAR     75  68  78 SE9       29.97R                  
ELKHART        PTCLDY    78  71  79 SE14      29.93R                  
GARDEN CITY    MOCLDY    75  67  76 SE15G23   29.93F                  
GREAT BEND     MOCLDY    74  70  87 E14       29.94R                  
LIBERAL        LGT RAIN  77  67  71 E14       29.98R                  
PRATT          CLEAR     76  69  78 SE9       29.94R                  
$$

KSZ066>073-081>083-090>101-250400-
SOUTHEAST KANSAS
  
CITY           SKY/WX    TMP DP  RH WIND       PRES   REMARKS
CHANUTE        CLOUDY    73  67  81 E8G18     30.00S                  
COFFEYVILLE    CLEAR     73  70  90 E8        29.96S                  
HUTCHINSON     CLOUDY    75  70  84 E14       29.95R                  
MEDICINE LODGE   N/A     77  71  82 SE6       29.91F                  
NEWTON         CLOUDY    70  67  90 E15G22    29.98S                  
PARSONS        PTCLDY    72  70  93 VRB5      29.99S                  
WICHITA INTL   MOCLDY    76  70  82 E20G25    29.94F                  
WICHITA JABRA  CLOUDY    73  70  90 E10       29.96S                  
WICHITA MCCONL CLOUDY    74  68  80 E16G22    29.96                   
WINFIELD       MOCLDY    76  72  87 E13       29.96S                  
$$

KSZ007>012-019>026-033>040-048>060-102>105-250400-
NORTHEAST KANSAS
  
CITY           SKY/WX    TMP DP  RH WIND       PRES   REMARKS
CONCORDIA      LGT RAIN  70  67  90 SE10G20   30.00R                  
EMPORIA        CLOUDY    69  67  93 E14       30.01S                  
LAWRENCE       CLOUDY    70  63  78 SE3       30.03F                  
MANHATTAN      CLOUDY    71  65  81 SE7       30.02R                  
MARYSVILLE     CLOUDY    68  64  88 CALM      30.05R                  
OLATHE IND     CLOUDY    69  61  75 E7        30.04F                  
OLATHE EXE     CLOUDY    69  61  75 E6        30.04S                  
SALINA         LGT RAIN  72  67  84 E8G18     29.99R                  
TOPEKA BILLARD MOCLDY    68  61  78 E8        30.02F                  
TOPEKA FORBES  MOCLDY    69  62  78 SE9       30.03S                  
$$